Data supplied by UK-AIR on 5/4/2008
All Data GMT hour ending 
Status: R =Ratified P=Provisional,P*=As supplied
,,Cambridge Roadside,,,,,,,,,,,,,,,,,,,,,,,
Date,time,"Nitric oxide",status,unit,"Nitrogen dioxide",status,unit,"Nitrogen oxides as nitrogen dioxide",status,unit
 
01-01-2002,01:00,53,R,ugm-3,57,R,ugm-3,138,R,ugm-3
01-01-2002,02:00,,,,,,,,,
01-01-2002,03:00,25,R,ugm-3,50,R,ugm-3,88,R,ugm-3
01-01-2002,04:00,24,R,ugm-3,48,R,ugm-3,84,R,ugm-3
01-01-2002,05:00,30,R,ugm-3,46,R,ugm-3,92,R,ugm-3
01-01-2002,06:00,25,R,ugm-3,48,R,ugm-3,86,R,ugm-3
01-01-2002,07:00,36,R,ugm-3,52,R,ugm-3,107,R,ugm-3
01-01-2002,08:00,44,R,ugm-3,52,R,ugm-3,118,R,ugm-3
01-01-2002,09:00,46,R,ugm-3,48,R,ugm-3,118,R,ugm-3
01-01-2002,10:00,35,R,ugm-3,42,R,ugm-3,96,R,ugm-3
01-01-2002,11:00,45,R,ugm-3,46,R,ugm-3,115,R,ugm-3
01-01-2002,12:00,34,R,ugm-3,40,R,ugm-3,92,R,ugm-3
01-01-2002,13:00,43,R,ugm-3,40,R,ugm-3,105,R,ugm-3
01-01-2002,14:00,51,R,ugm-3,44,R,ugm-3,122,R,ugm-3
01-01-2002,15:00,46,R,ugm-3,46,R,ugm-3,117,R,ugm-3
01-01-2002,16:00,45,R,ugm-3,57,R,ugm-3,126,R,ugm-3
01-01-2002,17:00,56,R,ugm-3,67,R,ugm-3,153,R,ugm-3
01-01-2002,18:00,59,R,ugm-3,69,R,ugm-3,159,R,ugm-3
01-01-2002,19:00,69,R,ugm-3,61,R,ugm-3,166,R,ugm-3
01-01-2002,20:00,88,R,ugm-3,67,R,ugm-3,201,R,ugm-3
01-01-2002,21:00,83,R,ugm-3,71,R,ugm-3,197,R,ugm-3
01-01-2002,22:00,98,R,ugm-3,73,R,ugm-3,222,R,ugm-3
01-01-2002,23:00,80,R,ugm-3,67,R,ugm-3,189,R,ugm-3
01-01-2002,24:00,66,R,ugm-3,67,R,ugm-3,168,R,ugm-3
02-01-2002,01:00,38,R,ugm-3,59,R,ugm-3,117,R,ugm-3
02-01-2002,02:00,,,,,,,,,
02-01-2002,03:00,8,R,ugm-3,53,R,ugm-3,65,R,ugm-3
02-01-2002,04:00,10,R,ugm-3,46,R,ugm-3,61,R,ugm-3
02-01-2002,05:00,9,R,ugm-3,42,R,ugm-3,55,R,ugm-3
02-01-2002,06:00,11,R,ugm-3,40,R,ugm-3,57,R,ugm-3
02-01-2002,07:00,34,R,ugm-3,44,R,ugm-3,96,R,ugm-3
02-01-2002,08:00,101,R,ugm-3,61,R,ugm-3,216,R,ugm-3
02-01-2002,09:00,229,R,ugm-3,69,R,ugm-3,418,R,ugm-3
02-01-2002,10:00,146,R,ugm-3,69,R,ugm-3,292,R,ugm-3
02-01-2002,11:00,90,R,ugm-3,57,R,ugm-3,195,R,ugm-3
02-01-2002,12:00,56,R,ugm-3,48,R,ugm-3,134,R,ugm-3
02-01-2002,13:00,60,R,ugm-3,50,R,ugm-3,141,R,ugm-3
02-01-2002,14:00,71,R,ugm-3,55,R,ugm-3,164,R,ugm-3
02-01-2002,15:00,64,R,ugm-3,55,R,ugm-3,153,R,ugm-3
02-01-2002,16:00,58,R,ugm-3,61,R,ugm-3,149,R,ugm-3
02-01-2002,17:00,78,R,ugm-3,63,R,ugm-3,181,R,ugm-3
02-01-2002,18:00,89,R,ugm-3,67,R,ugm-3,202,R,ugm-3
02-01-2002,19:00,45,R,ugm-3,59,R,ugm-3,128,R,ugm-3
02-01-2002,20:00,33,R,ugm-3,59,R,ugm-3,109,R,ugm-3
02-01-2002,21:00,18,R,ugm-3,50,R,ugm-3,76,R,ugm-3
02-01-2002,22:00,9,R,ugm-3,63,R,ugm-3,76,R,ugm-3
02-01-2002,23:00,15,R,ugm-3,61,R,ugm-3,84,R,ugm-3
02-01-2002,24:00,10,R,ugm-3,46,R,ugm-3,61,R,ugm-3
03-01-2002,01:00,1,R,ugm-3,34,R,ugm-3,36,R,ugm-3
03-01-2002,02:00,,,,,,,,,
03-01-2002,03:00,3,R,ugm-3,44,R,ugm-3,48,R,ugm-3
03-01-2002,04:00,3,R,ugm-3,59,R,ugm-3,63,R,ugm-3
03-01-2002,05:00,3,R,ugm-3,53,R,ugm-3,57,R,ugm-3
03-01-2002,06:00,5,R,ugm-3,44,R,ugm-3,52,R,ugm-3
03-01-2002,07:00,13,R,ugm-3,40,R,ugm-3,59,R,ugm-3
03-01-2002,08:00,28,R,ugm-3,40,R,ugm-3,82,R,ugm-3
03-01-2002,09:00,51,R,ugm-3,50,R,ugm-3,128,R,ugm-3
03-01-2002,10:00,50,R,ugm-3,44,R,ugm-3,120,R,ugm-3
03-01-2002,11:00,,,,,,,,,
03-01-2002,12:00,,,,,,,,,
03-01-2002,13:00,,,,,,,,,
03-01-2002,14:00,,,,,,,,,
03-01-2002,15:00,,,,,,,,,
03-01-2002,16:00,41,R,ugm-3,50,R,ugm-3,113,R,ugm-3
03-01-2002,17:00,63,R,ugm-3,57,R,ugm-3,153,R,ugm-3
03-01-2002,18:00,61,R,ugm-3,59,R,ugm-3,153,R,ugm-3
03-01-2002,19:00,46,R,ugm-3,59,R,ugm-3,130,R,ugm-3
03-01-2002,20:00,34,R,ugm-3,59,R,ugm-3,111,R,ugm-3
03-01-2002,21:00,30,R,ugm-3,57,R,ugm-3,103,R,ugm-3
03-01-2002,22:00,29,R,ugm-3,55,R,ugm-3,99,R,ugm-3
03-01-2002,23:00,23,R,ugm-3,57,R,ugm-3,92,R,ugm-3
03-01-2002,24:00,33,R,ugm-3,61,R,ugm-3,111,R,ugm-3
04-01-2002,01:00,15,R,ugm-3,53,R,ugm-3,76,R,ugm-3
04-01-2002,02:00,,,,,,,,,
04-01-2002,03:00,3,R,ugm-3,40,R,ugm-3,44,R,ugm-3
04-01-2002,04:00,,,,,,,,,
04-01-2002,05:00,9,R,ugm-3,42,R,ugm-3,55,R,ugm-3
04-01-2002,06:00,5,R,ugm-3,42,R,ugm-3,50,R,ugm-3
04-01-2002,07:00,53,R,ugm-3,57,R,ugm-3,138,R,ugm-3
04-01-2002,08:00,130,R,ugm-3,71,R,ugm-3,269,R,ugm-3
04-01-2002,09:00,216,R,ugm-3,80,R,ugm-3,411,R,ugm-3
04-01-2002,10:00,116,R,ugm-3,65,R,ugm-3,243,R,ugm-3
04-01-2002,11:00,108,R,ugm-3,65,R,ugm-3,229,R,ugm-3
04-01-2002,12:00,198,R,ugm-3,80,R,ugm-3,382,R,ugm-3
04-01-2002,13:00,106,R,ugm-3,65,R,ugm-3,227,R,ugm-3
04-01-2002,14:00,76,R,ugm-3,57,R,ugm-3,174,R,ugm-3
04-01-2002,15:00,124,R,ugm-3,65,R,ugm-3,254,R,ugm-3
04-01-2002,16:00,146,R,ugm-3,73,R,ugm-3,296,R,ugm-3
04-01-2002,17:00,179,R,ugm-3,73,R,ugm-3,346,R,ugm-3
04-01-2002,18:00,261,R,ugm-3,74,R,ugm-3,474,R,ugm-3
04-01-2002,19:00,165,R,ugm-3,63,R,ugm-3,315,R,ugm-3
04-01-2002,20:00,95,R,ugm-3,57,R,ugm-3,202,R,ugm-3
04-01-2002,21:00,81,R,ugm-3,52,R,ugm-3,176,R,ugm-3
04-01-2002,22:00,45,R,ugm-3,48,R,ugm-3,117,R,ugm-3
04-01-2002,23:00,54,R,ugm-3,48,R,ugm-3,130,R,ugm-3
04-01-2002,24:00,76,R,ugm-3,48,R,ugm-3,164,R,ugm-3
05-01-2002,01:00,35,R,ugm-3,42,R,ugm-3,96,R,ugm-3
05-01-2002,02:00,,,,,,,,,
05-01-2002,03:00,34,R,ugm-3,44,R,ugm-3,96,R,ugm-3
05-01-2002,04:00,29,R,ugm-3,44,R,ugm-3,88,R,ugm-3
05-01-2002,05:00,31,R,ugm-3,46,R,ugm-3,94,R,ugm-3
05-01-2002,06:00,40,R,ugm-3,46,R,ugm-3,107,R,ugm-3
05-01-2002,07:00,45,R,ugm-3,50,R,ugm-3,118,R,ugm-3
05-01-2002,08:00,73,R,ugm-3,53,R,ugm-3,164,R,ugm-3
05-01-2002,09:00,114,R,ugm-3,57,R,ugm-3,231,R,ugm-3
05-01-2002,10:00,144,R,ugm-3,61,R,ugm-3,281,R,ugm-3
05-01-2002,11:00,119,R,ugm-3,55,R,ugm-3,237,R,ugm-3
05-01-2002,12:00,145,R,ugm-3,50,R,ugm-3,271,R,ugm-3
05-01-2002,13:00,171,R,ugm-3,63,R,ugm-3,325,R,ugm-3
05-01-2002,14:00,176,R,ugm-3,59,R,ugm-3,329,R,ugm-3
05-01-2002,15:00,194,R,ugm-3,59,R,ugm-3,355,R,ugm-3
05-01-2002,16:00,191,R,ugm-3,57,R,ugm-3,350,R,ugm-3
05-01-2002,17:00,165,R,ugm-3,61,R,ugm-3,313,R,ugm-3
05-01-2002,18:00,166,R,ugm-3,65,R,ugm-3,319,R,ugm-3
05-01-2002,19:00,121,R,ugm-3,61,R,ugm-3,246,R,ugm-3
05-01-2002,20:00,103,R,ugm-3,61,R,ugm-3,218,R,ugm-3
05-01-2002,21:00,76,R,ugm-3,59,R,ugm-3,176,R,ugm-3
05-01-2002,22:00,71,R,ugm-3,53,R,ugm-3,162,R,ugm-3
05-01-2002,23:00,66,R,ugm-3,52,R,ugm-3,153,R,ugm-3
05-01-2002,24:00,65,R,ugm-3,42,R,ugm-3,141,R,ugm-3
06-01-2002,01:00,31,R,ugm-3,40,R,ugm-3,88,R,ugm-3
06-01-2002,02:00,,,,,,,,,
06-01-2002,03:00,18,R,ugm-3,27,R,ugm-3,53,R,ugm-3
06-01-2002,04:00,5,R,ugm-3,21,R,ugm-3,29,R,ugm-3
06-01-2002,05:00,1,R,ugm-3,19,R,ugm-3,21,R,ugm-3
06-01-2002,06:00,3,R,ugm-3,23,R,ugm-3,27,R,ugm-3
06-01-2002,07:00,14,R,ugm-3,27,R,ugm-3,48,R,ugm-3
06-01-2002,08:00,19,R,ugm-3,29,R,ugm-3,57,R,ugm-3
06-01-2002,09:00,18,R,ugm-3,29,R,ugm-3,55,R,ugm-3
06-01-2002,10:00,19,R,ugm-3,27,R,ugm-3,55,R,ugm-3
06-01-2002,11:00,44,R,ugm-3,34,R,ugm-3,101,R,ugm-3
06-01-2002,12:00,45,R,ugm-3,36,R,ugm-3,105,R,ugm-3
06-01-2002,13:00,79,R,ugm-3,46,R,ugm-3,166,R,ugm-3
06-01-2002,14:00,64,R,ugm-3,46,R,ugm-3,143,R,ugm-3
06-01-2002,15:00,59,R,ugm-3,53,R,ugm-3,143,R,ugm-3
06-01-2002,16:00,59,R,ugm-3,57,R,ugm-3,147,R,ugm-3
06-01-2002,17:00,90,R,ugm-3,61,R,ugm-3,199,R,ugm-3
06-01-2002,18:00,133,R,ugm-3,63,R,ugm-3,265,R,ugm-3
06-01-2002,19:00,123,R,ugm-3,61,R,ugm-3,248,R,ugm-3
06-01-2002,20:00,84,R,ugm-3,48,R,ugm-3,176,R,ugm-3
06-01-2002,21:00,76,R,ugm-3,48,R,ugm-3,164,R,ugm-3
06-01-2002,22:00,85,R,ugm-3,44,R,ugm-3,174,R,ugm-3
06-01-2002,23:00,65,R,ugm-3,42,R,ugm-3,141,R,ugm-3
06-01-2002,24:00,49,R,ugm-3,48,R,ugm-3,122,R,ugm-3
07-01-2002,01:00,14,R,ugm-3,38,R,ugm-3,59,R,ugm-3
07-01-2002,02:00,,,,,,,,,
07-01-2002,03:00,6,R,ugm-3,19,R,ugm-3,29,R,ugm-3
07-01-2002,04:00,,,,,,,,,
07-01-2002,05:00,5,R,ugm-3,19,R,ugm-3,27,R,ugm-3
07-01-2002,06:00,10,R,ugm-3,25,R,ugm-3,40,R,ugm-3
07-01-2002,07:00,31,R,ugm-3,34,R,ugm-3,82,R,ugm-3
07-01-2002,08:00,109,R,ugm-3,59,R,ugm-3,225,R,ugm-3
07-01-2002,09:00,208,R,ugm-3,65,R,ugm-3,382,R,ugm-3
07-01-2002,10:00,138,R,ugm-3,63,R,ugm-3,273,R,ugm-3
07-01-2002,11:00,203,R,ugm-3,76,R,ugm-3,386,R,ugm-3
07-01-2002,12:00,198,R,ugm-3,73,R,ugm-3,374,R,ugm-3
07-01-2002,13:00,170,R,ugm-3,69,R,ugm-3,329,R,ugm-3
07-01-2002,14:00,161,R,ugm-3,63,R,ugm-3,309,R,ugm-3
07-01-2002,15:00,198,R,ugm-3,63,R,ugm-3,365,R,ugm-3
07-01-2002,16:00,230,R,ugm-3,71,R,ugm-3,422,R,ugm-3
07-01-2002,17:00,196,R,ugm-3,69,R,ugm-3,369,R,ugm-3
07-01-2002,18:00,251,R,ugm-3,65,R,ugm-3,449,R,ugm-3
07-01-2002,19:00,156,R,ugm-3,57,R,ugm-3,296,R,ugm-3
07-01-2002,20:00,103,R,ugm-3,50,R,ugm-3,206,R,ugm-3
07-01-2002,21:00,66,R,ugm-3,48,R,ugm-3,149,R,ugm-3
07-01-2002,22:00,74,R,ugm-3,55,R,ugm-3,168,R,ugm-3
07-01-2002,23:00,60,R,ugm-3,52,R,ugm-3,143,R,ugm-3
07-01-2002,24:00,60,R,ugm-3,52,R,ugm-3,143,R,ugm-3
08-01-2002,01:00,41,R,ugm-3,48,R,ugm-3,111,R,ugm-3
08-01-2002,02:00,,,,,,,,,
08-01-2002,03:00,38,R,ugm-3,38,R,ugm-3,96,R,ugm-3
08-01-2002,04:00,23,R,ugm-3,38,R,ugm-3,73,R,ugm-3
08-01-2002,05:00,31,R,ugm-3,40,R,ugm-3,88,R,ugm-3
08-01-2002,06:00,38,R,ugm-3,36,R,ugm-3,94,R,ugm-3
08-01-2002,07:00,76,R,ugm-3,44,R,ugm-3,160,R,ugm-3
08-01-2002,08:00,121,R,ugm-3,50,R,ugm-3,235,R,ugm-3
08-01-2002,09:00,136,R,ugm-3,52,R,ugm-3,260,R,ugm-3
08-01-2002,10:00,83,R,ugm-3,38,R,ugm-3,164,R,ugm-3
08-01-2002,11:00,89,R,ugm-3,40,R,ugm-3,176,R,ugm-3
08-01-2002,12:00,88,R,ugm-3,48,R,ugm-3,181,R,ugm-3
08-01-2002,13:00,66,R,ugm-3,52,R,ugm-3,153,R,ugm-3
08-01-2002,14:00,80,R,ugm-3,53,R,ugm-3,176,R,ugm-3
08-01-2002,15:00,95,R,ugm-3,59,R,ugm-3,204,R,ugm-3
08-01-2002,16:00,86,R,ugm-3,52,R,ugm-3,183,R,ugm-3
08-01-2002,17:00,100,R,ugm-3,61,R,ugm-3,214,R,ugm-3
08-01-2002,18:00,75,R,ugm-3,52,R,ugm-3,166,R,ugm-3
08-01-2002,19:00,69,R,ugm-3,50,R,ugm-3,155,R,ugm-3
08-01-2002,20:00,38,R,ugm-3,48,R,ugm-3,105,R,ugm-3
08-01-2002,21:00,29,R,ugm-3,50,R,ugm-3,94,R,ugm-3
08-01-2002,22:00,30,R,ugm-3,50,R,ugm-3,96,R,ugm-3
08-01-2002,23:00,29,R,ugm-3,44,R,ugm-3,88,R,ugm-3
08-01-2002,24:00,31,R,ugm-3,42,R,ugm-3,90,R,ugm-3
09-01-2002,01:00,13,R,ugm-3,38,R,ugm-3,57,R,ugm-3
09-01-2002,02:00,,,,,,,,,
09-01-2002,03:00,,,,,,,,,
09-01-2002,04:00,3,R,ugm-3,36,R,ugm-3,40,R,ugm-3
09-01-2002,05:00,5,R,ugm-3,36,R,ugm-3,44,R,ugm-3
09-01-2002,06:00,14,R,ugm-3,40,R,ugm-3,61,R,ugm-3
09-01-2002,07:00,44,R,ugm-3,46,R,ugm-3,113,R,ugm-3
09-01-2002,08:00,120,R,ugm-3,52,R,ugm-3,235,R,ugm-3
09-01-2002,09:00,159,R,ugm-3,57,R,ugm-3,300,R,ugm-3
09-01-2002,10:00,146,R,ugm-3,57,R,ugm-3,281,R,ugm-3
09-01-2002,11:00,108,R,ugm-3,52,R,ugm-3,216,R,ugm-3
09-01-2002,12:00,96,R,ugm-3,48,R,ugm-3,195,R,ugm-3
09-01-2002,13:00,64,R,ugm-3,48,R,ugm-3,145,R,ugm-3
09-01-2002,14:00,51,R,ugm-3,48,R,ugm-3,126,R,ugm-3
09-01-2002,15:00,70,R,ugm-3,52,R,ugm-3,159,R,ugm-3
09-01-2002,16:00,69,R,ugm-3,57,R,ugm-3,162,R,ugm-3
09-01-2002,17:00,99,R,ugm-3,63,R,ugm-3,214,R,ugm-3
09-01-2002,18:00,128,R,ugm-3,67,R,ugm-3,262,R,ugm-3
09-01-2002,19:00,96,R,ugm-3,69,R,ugm-3,216,R,ugm-3
09-01-2002,20:00,99,R,ugm-3,71,R,ugm-3,222,R,ugm-3
09-01-2002,21:00,78,R,ugm-3,65,R,ugm-3,183,R,ugm-3
09-01-2002,22:00,80,R,ugm-3,59,R,ugm-3,181,R,ugm-3
09-01-2002,23:00,89,R,ugm-3,61,R,ugm-3,197,R,ugm-3
09-01-2002,24:00,65,R,ugm-3,57,R,ugm-3,157,R,ugm-3
10-01-2002,01:00,34,R,ugm-3,52,R,ugm-3,103,R,ugm-3
10-01-2002,02:00,,,,,,,,,
10-01-2002,03:00,26,R,ugm-3,50,R,ugm-3,90,R,ugm-3
10-01-2002,04:00,24,R,ugm-3,50,R,ugm-3,86,R,ugm-3
10-01-2002,05:00,28,R,ugm-3,50,R,ugm-3,92,R,ugm-3
10-01-2002,06:00,30,R,ugm-3,53,R,ugm-3,99,R,ugm-3
10-01-2002,07:00,91,R,ugm-3,57,R,ugm-3,197,R,ugm-3
10-01-2002,08:00,95,R,ugm-3,65,R,ugm-3,210,R,ugm-3
10-01-2002,09:00,169,R,ugm-3,69,R,ugm-3,327,R,ugm-3
10-01-2002,10:00,109,R,ugm-3,61,R,ugm-3,227,R,ugm-3
10-01-2002,11:00,170,R,ugm-3,69,R,ugm-3,329,R,ugm-3
10-01-2002,12:00,141,R,ugm-3,63,R,ugm-3,279,R,ugm-3
10-01-2002,13:00,175,R,ugm-3,69,R,ugm-3,336,R,ugm-3
10-01-2002,14:00,160,R,ugm-3,67,R,ugm-3,311,R,ugm-3
10-01-2002,15:00,169,R,ugm-3,73,R,ugm-3,330,R,ugm-3
10-01-2002,16:00,,,,,,,,,
10-01-2002,17:00,,,,,,,,,
10-01-2002,18:00,,,,,,,,,
10-01-2002,19:00,,,,,,,,,
10-01-2002,20:00,,,,,,,,,
10-01-2002,21:00,,,,,,,,,
10-01-2002,22:00,,,,,,,,,
10-01-2002,23:00,,,,,,,,,
10-01-2002,24:00,,,,,,,,,
11-01-2002,01:00,,,,,,,,,
11-01-2002,02:00,,,,,,,,,
11-01-2002,03:00,,,,,,,,,
11-01-2002,04:00,,,,,,,,,
11-01-2002,05:00,,,,,,,,,
11-01-2002,06:00,,,,,,,,,
11-01-2002,07:00,,,,,,,,,
11-01-2002,08:00,,,,,,,,,
11-01-2002,09:00,,,,,,,,,
11-01-2002,10:00,131,R,ugm-3,61,R,ugm-3,262,R,ugm-3
11-01-2002,11:00,126,R,ugm-3,57,R,ugm-3,250,R,ugm-3
11-01-2002,12:00,120,R,ugm-3,53,R,ugm-3,237,R,ugm-3
11-01-2002,13:00,124,R,ugm-3,53,R,ugm-3,243,R,ugm-3
11-01-2002,14:00,163,R,ugm-3,61,R,ugm-3,309,R,ugm-3
11-01-2002,15:00,210,R,ugm-3,73,R,ugm-3,393,R,ugm-3
11-01-2002,16:00,183,R,ugm-3,65,R,ugm-3,344,R,ugm-3
11-01-2002,17:00,196,R,ugm-3,67,R,ugm-3,367,R,ugm-3
11-01-2002,18:00,181,R,ugm-3,61,R,ugm-3,338,R,ugm-3
11-01-2002,19:00,158,R,ugm-3,61,R,ugm-3,302,R,ugm-3
11-01-2002,20:00,109,R,ugm-3,59,R,ugm-3,225,R,ugm-3
11-01-2002,21:00,96,R,ugm-3,55,R,ugm-3,202,R,ugm-3
11-01-2002,22:00,58,R,ugm-3,55,R,ugm-3,143,R,ugm-3
11-01-2002,23:00,53,R,ugm-3,53,R,ugm-3,134,R,ugm-3
11-01-2002,24:00,44,R,ugm-3,42,R,ugm-3,109,R,ugm-3
12-01-2002,01:00,13,R,ugm-3,23,R,ugm-3,42,R,ugm-3
12-01-2002,02:00,,,,,,,,,
12-01-2002,03:00,14,R,ugm-3,31,R,ugm-3,52,R,ugm-3
12-01-2002,04:00,4,R,ugm-3,36,R,ugm-3,42,R,ugm-3
12-01-2002,05:00,6,R,ugm-3,42,R,ugm-3,52,R,ugm-3
12-01-2002,06:00,6,R,ugm-3,40,R,ugm-3,50,R,ugm-3
12-01-2002,07:00,18,R,ugm-3,34,R,ugm-3,61,R,ugm-3
12-01-2002,08:00,76,R,ugm-3,50,R,ugm-3,166,R,ugm-3
12-01-2002,09:00,90,R,ugm-3,52,R,ugm-3,189,R,ugm-3
12-01-2002,10:00,88,R,ugm-3,52,R,ugm-3,185,R,ugm-3
12-01-2002,11:00,110,R,ugm-3,50,R,ugm-3,218,R,ugm-3
12-01-2002,12:00,111,R,ugm-3,53,R,ugm-3,223,R,ugm-3
12-01-2002,13:00,108,R,ugm-3,69,R,ugm-3,233,R,ugm-3
12-01-2002,14:00,110,R,ugm-3,65,R,ugm-3,233,R,ugm-3
12-01-2002,15:00,135,R,ugm-3,73,R,ugm-3,279,R,ugm-3
12-01-2002,16:00,124,R,ugm-3,65,R,ugm-3,254,R,ugm-3
12-01-2002,17:00,144,R,ugm-3,63,R,ugm-3,283,R,ugm-3
12-01-2002,18:00,110,R,ugm-3,57,R,ugm-3,225,R,ugm-3
12-01-2002,19:00,89,R,ugm-3,55,R,ugm-3,191,R,ugm-3
12-01-2002,20:00,49,R,ugm-3,46,R,ugm-3,120,R,ugm-3
12-01-2002,21:00,29,R,ugm-3,40,R,ugm-3,84,R,ugm-3
12-01-2002,22:00,20,R,ugm-3,29,R,ugm-3,59,R,ugm-3
12-01-2002,23:00,19,R,ugm-3,29,R,ugm-3,57,R,ugm-3
12-01-2002,24:00,24,R,ugm-3,27,R,ugm-3,63,R,ugm-3
13-01-2002,01:00,11,R,ugm-3,21,R,ugm-3,38,R,ugm-3
13-01-2002,02:00,,,,,,,,,
13-01-2002,03:00,5,R,ugm-3,17,R,ugm-3,25,R,ugm-3
13-01-2002,04:00,,,,,,,,,
13-01-2002,05:00,,,,,,,,,
13-01-2002,06:00,1,R,ugm-3,17,R,ugm-3,19,R,ugm-3
13-01-2002,07:00,10,R,ugm-3,23,R,ugm-3,38,R,ugm-3
13-01-2002,08:00,10,R,ugm-3,25,R,ugm-3,40,R,ugm-3
13-01-2002,09:00,9,R,ugm-3,25,R,ugm-3,38,R,ugm-3
13-01-2002,10:00,24,R,ugm-3,31,R,ugm-3,67,R,ugm-3
13-01-2002,11:00,41,R,ugm-3,36,R,ugm-3,99,R,ugm-3
13-01-2002,12:00,48,R,ugm-3,42,R,ugm-3,115,R,ugm-3
13-01-2002,13:00,68,R,ugm-3,42,R,ugm-3,145,R,ugm-3
13-01-2002,14:00,74,R,ugm-3,50,R,ugm-3,162,R,ugm-3
13-01-2002,15:00,70,R,ugm-3,52,R,ugm-3,159,R,ugm-3
13-01-2002,16:00,58,R,ugm-3,50,R,ugm-3,138,R,ugm-3
13-01-2002,17:00,58,R,ugm-3,52,R,ugm-3,139,R,ugm-3
13-01-2002,18:00,55,R,ugm-3,53,R,ugm-3,138,R,ugm-3
13-01-2002,19:00,54,R,ugm-3,52,R,ugm-3,134,R,ugm-3
13-01-2002,20:00,31,R,ugm-3,52,R,ugm-3,99,R,ugm-3
13-01-2002,21:00,36,R,ugm-3,53,R,ugm-3,109,R,ugm-3
13-01-2002,22:00,43,R,ugm-3,55,R,ugm-3,120,R,ugm-3
13-01-2002,23:00,26,R,ugm-3,52,R,ugm-3,92,R,ugm-3
13-01-2002,24:00,16,R,ugm-3,50,R,ugm-3,74,R,ugm-3
14-01-2002,01:00,3,R,ugm-3,46,R,ugm-3,50,R,ugm-3
14-01-2002,02:00,,,,,,,,,
14-01-2002,03:00,,,,,,,,,
14-01-2002,04:00,,,,,,,,,
14-01-2002,05:00,3,R,ugm-3,21,R,ugm-3,25,R,ugm-3
14-01-2002,06:00,5,R,ugm-3,23,R,ugm-3,31,R,ugm-3
14-01-2002,07:00,19,R,ugm-3,32,R,ugm-3,61,R,ugm-3
14-01-2002,08:00,75,R,ugm-3,48,R,ugm-3,162,R,ugm-3
14-01-2002,09:00,123,R,ugm-3,59,R,ugm-3,246,R,ugm-3
14-01-2002,10:00,125,R,ugm-3,63,R,ugm-3,254,R,ugm-3
14-01-2002,11:00,109,R,ugm-3,55,R,ugm-3,222,R,ugm-3
14-01-2002,12:00,119,R,ugm-3,57,R,ugm-3,239,R,ugm-3
14-01-2002,13:00,93,R,ugm-3,61,R,ugm-3,202,R,ugm-3
14-01-2002,14:00,78,R,ugm-3,53,R,ugm-3,172,R,ugm-3
14-01-2002,15:00,80,R,ugm-3,57,R,ugm-3,180,R,ugm-3
14-01-2002,16:00,69,R,ugm-3,59,R,ugm-3,164,R,ugm-3
14-01-2002,17:00,88,R,ugm-3,65,R,ugm-3,199,R,ugm-3
14-01-2002,18:00,89,R,ugm-3,63,R,ugm-3,199,R,ugm-3
14-01-2002,19:00,53,R,ugm-3,53,R,ugm-3,134,R,ugm-3
14-01-2002,20:00,31,R,ugm-3,42,R,ugm-3,90,R,ugm-3
14-01-2002,21:00,24,R,ugm-3,36,R,ugm-3,73,R,ugm-3
14-01-2002,22:00,30,R,ugm-3,38,R,ugm-3,84,R,ugm-3
14-01-2002,23:00,29,R,ugm-3,40,R,ugm-3,84,R,ugm-3
14-01-2002,24:00,19,R,ugm-3,31,R,ugm-3,59,R,ugm-3
15-01-2002,01:00,5,R,ugm-3,25,R,ugm-3,32,R,ugm-3
15-01-2002,02:00,,,,,,,,,
15-01-2002,03:00,6,R,ugm-3,25,R,ugm-3,34,R,ugm-3
15-01-2002,04:00,0,R,ugm-3,17,R,ugm-3,17,R,ugm-3
15-01-2002,05:00,5,R,ugm-3,19,R,ugm-3,27,R,ugm-3
15-01-2002,06:00,4,R,ugm-3,17,R,ugm-3,23,R,ugm-3
15-01-2002,07:00,28,R,ugm-3,38,R,ugm-3,80,R,ugm-3
15-01-2002,08:00,143,R,ugm-3,61,R,ugm-3,279,R,ugm-3
15-01-2002,09:00,200,R,ugm-3,76,R,ugm-3,382,R,ugm-3
15-01-2002,10:00,154,R,ugm-3,65,R,ugm-3,300,R,ugm-3
15-01-2002,11:00,178,R,ugm-3,73,R,ugm-3,344,R,ugm-3
15-01-2002,12:00,151,R,ugm-3,74,R,ugm-3,306,R,ugm-3
15-01-2002,13:00,141,R,ugm-3,65,R,ugm-3,281,R,ugm-3
15-01-2002,14:00,110,R,ugm-3,65,R,ugm-3,233,R,ugm-3
15-01-2002,15:00,163,R,ugm-3,86,R,ugm-3,334,R,ugm-3
15-01-2002,16:00,108,R,ugm-3,69,R,ugm-3,233,R,ugm-3
15-01-2002,17:00,146,R,ugm-3,82,R,ugm-3,306,R,ugm-3
15-01-2002,18:00,155,R,ugm-3,74,R,ugm-3,311,R,ugm-3
15-01-2002,19:00,86,R,ugm-3,67,R,ugm-3,199,R,ugm-3
15-01-2002,20:00,73,R,ugm-3,61,R,ugm-3,172,R,ugm-3
15-01-2002,21:00,70,R,ugm-3,61,R,ugm-3,168,R,ugm-3
15-01-2002,22:00,76,R,ugm-3,59,R,ugm-3,176,R,ugm-3
15-01-2002,23:00,79,R,ugm-3,61,R,ugm-3,181,R,ugm-3
15-01-2002,24:00,59,R,ugm-3,63,R,ugm-3,153,R,ugm-3
16-01-2002,01:00,16,R,ugm-3,50,R,ugm-3,74,R,ugm-3
16-01-2002,02:00,,,,,,,,,
16-01-2002,03:00,3,R,ugm-3,32,R,ugm-3,36,R,ugm-3
16-01-2002,04:00,,,,,,,,,
16-01-2002,05:00,6,R,ugm-3,31,R,ugm-3,40,R,ugm-3
16-01-2002,06:00,8,R,ugm-3,34,R,ugm-3,46,R,ugm-3
16-01-2002,07:00,49,R,ugm-3,44,R,ugm-3,118,R,ugm-3
16-01-2002,08:00,134,R,ugm-3,63,R,ugm-3,267,R,ugm-3
16-01-2002,09:00,213,R,ugm-3,76,R,ugm-3,401,R,ugm-3
16-01-2002,10:00,166,R,ugm-3,73,R,ugm-3,327,R,ugm-3
16-01-2002,11:00,136,R,ugm-3,61,R,ugm-3,269,R,ugm-3
16-01-2002,12:00,124,R,ugm-3,67,R,ugm-3,256,R,ugm-3
16-01-2002,13:00,145,R,ugm-3,71,R,ugm-3,292,R,ugm-3
16-01-2002,14:00,119,R,ugm-3,69,R,ugm-3,250,R,ugm-3
16-01-2002,15:00,110,R,ugm-3,67,R,ugm-3,235,R,ugm-3
16-01-2002,16:00,124,R,ugm-3,69,R,ugm-3,258,R,ugm-3
16-01-2002,17:00,176,R,ugm-3,78,R,ugm-3,348,R,ugm-3
16-01-2002,18:00,140,R,ugm-3,73,R,ugm-3,287,R,ugm-3
16-01-2002,19:00,100,R,ugm-3,71,R,ugm-3,223,R,ugm-3
16-01-2002,20:00,56,R,ugm-3,65,R,ugm-3,151,R,ugm-3
16-01-2002,21:00,40,R,ugm-3,67,R,ugm-3,128,R,ugm-3
16-01-2002,22:00,25,R,ugm-3,55,R,ugm-3,94,R,ugm-3
16-01-2002,23:00,21,R,ugm-3,46,R,ugm-3,78,R,ugm-3
16-01-2002,24:00,19,R,ugm-3,46,R,ugm-3,74,R,ugm-3
17-01-2002,01:00,5,R,ugm-3,32,R,ugm-3,40,R,ugm-3
17-01-2002,02:00,,,,,,,,,
17-01-2002,03:00,,,,,,,,,
17-01-2002,04:00,,,,,,,,,
17-01-2002,05:00,,,,,,,,,
17-01-2002,06:00,5,R,ugm-3,15,R,ugm-3,23,R,ugm-3
17-01-2002,07:00,13,R,ugm-3,27,R,ugm-3,46,R,ugm-3
17-01-2002,08:00,43,R,ugm-3,44,R,ugm-3,109,R,ugm-3
17-01-2002,09:00,90,R,ugm-3,65,R,ugm-3,202,R,ugm-3
17-01-2002,10:00,66,R,ugm-3,59,R,ugm-3,160,R,ugm-3
17-01-2002,11:00,70,R,ugm-3,52,R,ugm-3,159,R,ugm-3
17-01-2002,12:00,63,R,ugm-3,52,R,ugm-3,147,R,ugm-3
17-01-2002,13:00,55,R,ugm-3,52,R,ugm-3,136,R,ugm-3
17-01-2002,14:00,58,R,ugm-3,55,R,ugm-3,143,R,ugm-3
17-01-2002,15:00,100,R,ugm-3,69,R,ugm-3,222,R,ugm-3
17-01-2002,16:00,88,R,ugm-3,65,R,ugm-3,199,R,ugm-3
17-01-2002,17:00,154,R,ugm-3,73,R,ugm-3,308,R,ugm-3
17-01-2002,18:00,154,R,ugm-3,78,R,ugm-3,313,R,ugm-3
17-01-2002,19:00,99,R,ugm-3,71,R,ugm-3,222,R,ugm-3
17-01-2002,20:00,65,R,ugm-3,61,R,ugm-3,160,R,ugm-3
17-01-2002,21:00,95,R,ugm-3,65,R,ugm-3,210,R,ugm-3
17-01-2002,22:00,95,R,ugm-3,61,R,ugm-3,206,R,ugm-3
17-01-2002,23:00,68,R,ugm-3,61,R,ugm-3,164,R,ugm-3
17-01-2002,24:00,36,R,ugm-3,52,R,ugm-3,107,R,ugm-3
18-01-2002,01:00,,,,,,,,,
18-01-2002,02:00,,,,,,,,,
18-01-2002,03:00,6,R,ugm-3,29,R,ugm-3,38,R,ugm-3
18-01-2002,04:00,4,R,ugm-3,29,R,ugm-3,34,R,ugm-3
18-01-2002,05:00,6,R,ugm-3,23,R,ugm-3,32,R,ugm-3
18-01-2002,06:00,5,R,ugm-3,29,R,ugm-3,36,R,ugm-3
18-01-2002,07:00,46,R,ugm-3,46,R,ugm-3,117,R,ugm-3
18-01-2002,08:00,131,R,ugm-3,61,R,ugm-3,262,R,ugm-3
18-01-2002,09:00,199,R,ugm-3,74,R,ugm-3,378,R,ugm-3
18-01-2002,10:00,174,R,ugm-3,71,R,ugm-3,336,R,ugm-3
18-01-2002,11:00,179,R,ugm-3,71,R,ugm-3,344,R,ugm-3
18-01-2002,12:00,149,R,ugm-3,71,R,ugm-3,298,R,ugm-3
18-01-2002,13:00,146,R,ugm-3,71,R,ugm-3,294,R,ugm-3
18-01-2002,14:00,144,R,ugm-3,80,R,ugm-3,300,R,ugm-3
18-01-2002,15:00,183,R,ugm-3,96,R,ugm-3,374,R,ugm-3
18-01-2002,16:00,128,R,ugm-3,78,R,ugm-3,273,R,ugm-3
18-01-2002,17:00,123,R,ugm-3,80,R,ugm-3,267,R,ugm-3
18-01-2002,18:00,96,R,ugm-3,67,R,ugm-3,214,R,ugm-3
18-01-2002,19:00,53,R,ugm-3,53,R,ugm-3,134,R,ugm-3
18-01-2002,20:00,33,R,ugm-3,38,R,ugm-3,88,R,ugm-3
18-01-2002,21:00,31,R,ugm-3,38,R,ugm-3,86,R,ugm-3
18-01-2002,22:00,23,R,ugm-3,34,R,ugm-3,69,R,ugm-3
18-01-2002,23:00,24,R,ugm-3,31,R,ugm-3,67,R,ugm-3
18-01-2002,24:00,21,R,ugm-3,25,R,ugm-3,57,R,ugm-3
19-01-2002,01:00,5,R,ugm-3,15,R,ugm-3,23,R,ugm-3
19-01-2002,02:00,,,,,,,,,
19-01-2002,03:00,5,R,ugm-3,15,R,ugm-3,23,R,ugm-3
19-01-2002,04:00,1,R,ugm-3,8,R,ugm-3,10,R,ugm-3
19-01-2002,05:00,1,R,ugm-3,8,R,ugm-3,10,R,ugm-3
19-01-2002,06:00,1,R,ugm-3,8,R,ugm-3,10,R,ugm-3
19-01-2002,07:00,15,R,ugm-3,21,R,ugm-3,44,R,ugm-3
19-01-2002,08:00,38,R,ugm-3,32,R,ugm-3,90,R,ugm-3
19-01-2002,09:00,43,R,ugm-3,46,R,ugm-3,111,R,ugm-3
19-01-2002,10:00,38,R,ugm-3,38,R,ugm-3,96,R,ugm-3
19-01-2002,11:00,55,R,ugm-3,40,R,ugm-3,124,R,ugm-3
19-01-2002,12:00,53,R,ugm-3,44,R,ugm-3,124,R,ugm-3
19-01-2002,13:00,60,R,ugm-3,48,R,ugm-3,139,R,ugm-3
19-01-2002,14:00,45,R,ugm-3,42,R,ugm-3,111,R,ugm-3
19-01-2002,15:00,53,R,ugm-3,48,R,ugm-3,128,R,ugm-3
19-01-2002,16:00,75,R,ugm-3,63,R,ugm-3,178,R,ugm-3
19-01-2002,17:00,111,R,ugm-3,71,R,ugm-3,241,R,ugm-3
19-01-2002,18:00,134,R,ugm-3,80,R,ugm-3,285,R,ugm-3
19-01-2002,19:00,74,R,ugm-3,59,R,ugm-3,172,R,ugm-3
19-01-2002,20:00,46,R,ugm-3,46,R,ugm-3,117,R,ugm-3
19-01-2002,21:00,23,R,ugm-3,38,R,ugm-3,73,R,ugm-3
19-01-2002,22:00,20,R,ugm-3,29,R,ugm-3,59,R,ugm-3
19-01-2002,23:00,24,R,ugm-3,32,R,ugm-3,69,R,ugm-3
19-01-2002,24:00,34,R,ugm-3,32,R,ugm-3,84,R,ugm-3
20-01-2002,01:00,10,R,ugm-3,25,R,ugm-3,40,R,ugm-3
20-01-2002,02:00,,,,,,,,,
20-01-2002,03:00,8,R,ugm-3,25,R,ugm-3,36,R,ugm-3
20-01-2002,04:00,,,,,,,,,
20-01-2002,05:00,0,R,ugm-3,8,R,ugm-3,8,R,ugm-3
20-01-2002,06:00,,,,,,,,,
20-01-2002,07:00,3,R,ugm-3,8,R,ugm-3,11,R,ugm-3
20-01-2002,08:00,,,,,,,,,
20-01-2002,09:00,4,R,ugm-3,10,R,ugm-3,15,R,ugm-3
20-01-2002,10:00,5,R,ugm-3,11,R,ugm-3,19,R,ugm-3
20-01-2002,11:00,8,R,ugm-3,17,R,ugm-3,29,R,ugm-3
20-01-2002,12:00,16,R,ugm-3,23,R,ugm-3,48,R,ugm-3
20-01-2002,13:00,16,R,ugm-3,23,R,ugm-3,48,R,ugm-3
20-01-2002,14:00,15,R,ugm-3,23,R,ugm-3,46,R,ugm-3
20-01-2002,15:00,19,R,ugm-3,25,R,ugm-3,53,R,ugm-3
20-01-2002,16:00,18,R,ugm-3,25,R,ugm-3,52,R,ugm-3
20-01-2002,17:00,15,R,ugm-3,23,R,ugm-3,46,R,ugm-3
20-01-2002,18:00,14,R,ugm-3,21,R,ugm-3,42,R,ugm-3
20-01-2002,19:00,11,R,ugm-3,21,R,ugm-3,38,R,ugm-3
20-01-2002,20:00,11,R,ugm-3,21,R,ugm-3,38,R,ugm-3
20-01-2002,21:00,16,R,ugm-3,25,R,ugm-3,50,R,ugm-3
20-01-2002,22:00,18,R,ugm-3,31,R,ugm-3,57,R,ugm-3
20-01-2002,23:00,8,R,ugm-3,15,R,ugm-3,27,R,ugm-3
20-01-2002,24:00,8,R,ugm-3,13,R,ugm-3,25,R,ugm-3
21-01-2002,01:00,,,,,,,,,
21-01-2002,02:00,,,,,,,,,
21-01-2002,03:00,1,R,ugm-3,6,R,ugm-3,8,R,ugm-3
21-01-2002,04:00,,,,,,,,,
21-01-2002,05:00,,,,,,,,,
21-01-2002,06:00,6,R,ugm-3,13,R,ugm-3,23,R,ugm-3
21-01-2002,07:00,13,R,ugm-3,29,R,ugm-3,48,R,ugm-3
21-01-2002,08:00,39,R,ugm-3,36,R,ugm-3,96,R,ugm-3
21-01-2002,09:00,64,R,ugm-3,46,R,ugm-3,143,R,ugm-3
21-01-2002,10:00,58,R,ugm-3,42,R,ugm-3,130,R,ugm-3
21-01-2002,11:00,43,R,ugm-3,38,R,ugm-3,103,R,ugm-3
21-01-2002,12:00,49,R,ugm-3,44,R,ugm-3,118,R,ugm-3
21-01-2002,13:00,59,R,ugm-3,46,R,ugm-3,136,R,ugm-3
21-01-2002,14:00,63,R,ugm-3,50,R,ugm-3,145,R,ugm-3
21-01-2002,15:00,44,R,ugm-3,42,R,ugm-3,109,R,ugm-3
21-01-2002,16:00,55,R,ugm-3,40,R,ugm-3,124,R,ugm-3
21-01-2002,17:00,63,R,ugm-3,52,R,ugm-3,147,R,ugm-3